Cumberland, WV

7:47 AM EST on November 19, 2017 (GMT -0500)
Greater Cumberland Regional

Weather History for KCBE - December, 2012

Change the Weather History Date:

Sunday, December 2, 2012

  Actual Average (KMRB) Record (KMRB)
Temperature  
Mean Temperature 38 °F -  
Max Temperature 44 °F 48 °F 69 °F (1998)
Min Temperature 32 °F 27 °F 7 °F (1967)
Degree Days  
Heating Degree Days 27    
Moisture  
Dew Point 37 °F    
Average Humidity 95    
Maximum Humidity 100    
Minimum Humidity 76    
Precipitation  
Precipitation 0.00 in - - ()
Sea Level Pressure  
Sea Level Pressure 30.26 in    
Wind  
Wind Speed 0 mph (NNW)    
Max Wind Speed 4 mph    
Max Gust Speed -    
Visibility 3 miles    
Events      
Averages and records for this station are not official NWS values.
T = Trace of Precipitation, MM = Missing Value Source: NWS Daily Summary

Daily Weather History Graph

Daily Weather History Graph

Search for Another Location

Airport or City:

Trip Planner

Search our weather history database for the weather conditions in past years. The results will help you decide how hot, cold, wet, or windy it might be!

Date:

Astronomy

Dec. 02, 2012 Rise Set
Actual Time 7:18 AM EST 4:51 PM EST
Civil Twilight 6:48 AM EST 5:21 PM EST
Nautical Twilight 6:14 AM EST 5:54 PM EST
Astronomical Twilight 5:42 AM EST 6:26 PM EST
Moon 8:36 PM EST (12/2) 10:07 AM EST (12/2)
Length of Visible Light 10h 32m
Length of Day
9h 33m
Waning Gibbous, 86% of the Moon is Illuminated
Dec 2
Waning Gibbous
Dec 6
Last Quarter
Dec 13
New
Dec 20
First Quarter
Dec 28
Full

Hourly Weather History & Observations

Time (EST) Temp. Windchill Dew Point Humidity Pressure Visibility Wind Dir Wind Speed Gust Speed Precip Events Conditions
12:05 AM 33.8 °F - 33.8 °F 100% 30.39 in 7.0 mi Calm Calm - N/A   Clear
12:27 AM 33.8 °F - 33.8 °F 100% 30.39 in 5.0 mi Calm Calm - N/A   Clear
12:48 AM 33.8 °F - 32.0 °F 93% 30.38 in 5.0 mi Calm Calm - N/A   Clear
1:09 AM 32.0 °F - 32.0 °F 100% 30.39 in 5.0 mi Calm Calm - N/A   Clear
1:30 AM 32.0 °F - 32.0 °F 100% 30.39 in 3.0 mi Calm Calm - N/A   Unknown
1:52 AM 32.0 °F - 32.0 °F 100% 30.38 in 3.0 mi Calm Calm - N/A   Unknown
2:13 AM 32.0 °F - 32.0 °F 100% 30.37 in 4.0 mi Calm Calm - N/A   Clear
2:34 AM 32.0 °F - 32.0 °F 100% 30.37 in 4.0 mi Calm Calm - N/A   Clear
2:56 AM 32.0 °F - 32.0 °F 100% 30.37 in 3.0 mi Calm Calm - N/A   Unknown
3:17 AM 32.0 °F - 32.0 °F 100% 30.37 in 2.0 mi Calm Calm - N/A   Unknown
3:38 AM 32.0 °F - 32.0 °F 100% 30.36 in 1.8 mi Calm Calm - N/A   Unknown
4:00 AM 32.0 °F - 32.0 °F 100% 30.36 in 1.8 mi Calm Calm - N/A   Scattered Clouds
4:21 AM 32.0 °F - 32.0 °F 100% 30.36 in 2.0 mi Calm Calm - N/A   Overcast
4:42 AM 32.0 °F - 32.0 °F 100% 30.36 in 2.5 mi Calm Calm - N/A   Overcast
5:03 AM 32.0 °F - 32.0 °F 100% 30.35 in 2.0 mi Calm Calm - N/A   Overcast
5:25 AM 32.0 °F - 32.0 °F 100% 30.35 in 2.5 mi Calm Calm - N/A   Overcast
5:46 AM 32.0 °F - 32.0 °F 100% 30.35 in 3.0 mi Calm Calm - N/A   Overcast
6:07 AM 32.0 °F - 32.0 °F 100% 30.35 in 2.5 mi Calm Calm - N/A   Overcast
6:29 AM 32.0 °F - 32.0 °F 100% 30.35 in 2.5 mi Calm Calm - N/A   Overcast
6:50 AM 32.0 °F - 32.0 °F 100% 30.35 in 3.0 mi Calm Calm - N/A   Overcast
7:11 AM 32.0 °F - 32.0 °F 100% 30.34 in 2.0 mi Calm Calm - N/A   Overcast
7:32 AM 32.0 °F - 32.0 °F 100% 30.34 in 2.5 mi Calm Calm - N/A   Overcast
7:54 AM 32.0 °F - 32.0 °F 100% 30.34 in 2.0 mi Calm Calm - N/A   Overcast
8:15 AM 32.0 °F - 32.0 °F 100% 30.34 in 1.8 mi Calm Calm - N/A   Overcast
8:36 AM 32.0 °F - 32.0 °F 100% 30.33 in 2.0 mi Calm Calm - N/A   Overcast
8:57 AM 32.0 °F - 32.0 °F 100% 30.32 in 2.0 mi Calm Calm - N/A   Overcast
9:19 AM 33.8 °F - 33.8 °F 100% 30.32 in 1.5 mi Calm Calm - N/A   Overcast
9:40 AM 33.8 °F - 33.8 °F 100% 30.32 in 1.2 mi Calm Calm - N/A   Overcast
10:01 AM 33.8 °F - 33.8 °F 100% 30.31 in 1.0 mi Calm Calm - N/A   Overcast
10:22 AM 35.6 °F - 35.6 °F 100% 30.30 in 1.2 mi Calm Calm - N/A   Overcast
10:44 AM 35.6 °F - 35.6 °F 100% 30.30 in 1.8 mi Calm Calm - N/A   Overcast
11:05 AM 37.4 °F - 37.4 °F 100% 30.28 in 2.0 mi Calm Calm - N/A   Overcast
12:09 PM 41.0 °F - 37.4 °F 87% 30.23 in 3.0 mi Calm Calm - N/A   Unknown
12:30 PM 42.8 °F 41.1 °F 37.4 °F 81% 30.21 in 3.0 mi WNW 3.5 mph - N/A   Unknown
12:51 PM 42.8 °F - 37.4 °F 81% 30.19 in 4.0 mi Calm Calm - N/A   Clear
1:12 PM 42.8 °F - 37.4 °F 81% 30.18 in 4.0 mi Calm Calm - N/A   Clear
1:33 PM 42.8 °F - 37.4 °F 81% 30.17 in 4.0 mi Calm Calm - N/A   Clear
1:55 PM 42.8 °F 41.1 °F 37.4 °F 81% 30.17 in 4.0 mi North 3.5 mph - N/A   Clear
2:16 PM 44.6 °F - 37.4 °F 76% 30.16 in 3.0 mi Calm Calm - N/A   Unknown
2:37 PM 44.6 °F 43.1 °F 37.4 °F 76% 30.15 in 4.0 mi NNW 3.5 mph - N/A   Scattered Clouds
2:58 PM 44.6 °F - 37.4 °F 76% 30.15 in 4.0 mi Calm Calm - N/A   Scattered Clouds
3:20 PM 44.6 °F - 39.2 °F 81% 30.15 in 4.0 mi Calm Calm - N/A   Mostly Cloudy
3:41 PM 44.6 °F - 41.0 °F 87% 30.15 in 4.0 mi Calm Calm - N/A   Overcast
4:02 PM 44.6 °F - 41.0 °F 87% 30.15 in 4.0 mi Calm Calm - N/A   Overcast
4:23 PM 44.6 °F - 41.0 °F 87% 30.15 in 4.0 mi Calm Calm - N/A   Overcast
4:45 PM 44.6 °F - 41.0 °F 87% 30.15 in 5.0 mi Calm Calm - N/A   Mostly Cloudy
5:06 PM 44.6 °F - 42.8 °F 93% 30.15 in 4.0 mi Calm Calm - N/A   Overcast
5:27 PM 44.6 °F - 42.8 °F 93% 30.16 in 4.0 mi Calm Calm - N/A   Overcast
6:31 PM 44.6 °F 43.1 °F 42.8 °F 93% 30.16 in 4.0 mi North 3.5 mph - N/A   Mostly Cloudy
6:52 PM 44.6 °F - 42.8 °F 93% 30.17 in 4.0 mi Calm Calm - N/A   Mostly Cloudy
7:13 PM 44.6 °F - 42.8 °F 93% 30.17 in 4.0 mi Calm Calm - N/A   Mostly Cloudy
7:35 PM 44.6 °F - 42.8 °F 93% 30.17 in 4.0 mi Calm Calm - N/A   Overcast
7:56 PM 44.6 °F - 42.8 °F 93% 30.18 in 4.0 mi Calm Calm - N/A   Overcast
8:17 PM 44.6 °F - 44.6 °F 100% 30.18 in 4.0 mi Calm Calm - N/A   Mostly Cloudy
8:38 PM 44.6 °F - 44.6 °F 100% 30.18 in 4.0 mi Calm Calm - N/A   Mostly Cloudy
9:00 PM 44.6 °F - 44.6 °F 100% 30.19 in 4.0 mi Calm Calm - N/A   Mostly Cloudy
9:21 PM 44.6 °F - 44.6 °F 100% 30.19 in 4.0 mi Calm Calm - N/A   Mostly Cloudy
9:42 PM 44.6 °F - 44.6 °F 100% 30.19 in 4.0 mi Calm Calm - N/A   Mostly Cloudy
10:03 PM 44.6 °F - 42.8 °F 93% 30.19 in 4.0 mi Calm Calm - N/A   Overcast
10:25 PM 44.6 °F - 44.6 °F 100% 30.20 in 3.0 mi Calm Calm - N/A   Overcast
10:46 PM 44.6 °F - 44.6 °F 100% 30.19 in 4.0 mi Calm Calm - N/A   Overcast
11:07 PM 44.6 °F - 44.6 °F 100% 30.20 in 2.0 mi Calm Calm - N/A   Overcast
11:29 PM 44.6 °F - 44.6 °F 100% 30.20 in 2.5 mi Calm Calm - N/A   Overcast
11:50 PM 44.6 °F - 44.6 °F 100% 30.20 in 2.0 mi Calm Calm - N/A   Overcast